Weather History for KBVO - October, 2011

Change the Weather History Date:

Tuesday, October 11, 2011

  Actual Average Record
Temperature  
Mean Temperature 62 °F -  
Max Temperature 80 °F 76 °F 93 °F (1975)
Min Temperature 46 °F 47 °F 32 °F (1952)
Degree Days  
Heating Degree Days 2    
Growing Degree Days 12 (Base 50)    
Moisture  
Dew Point 51 °F    
Average Humidity 92    
Maximum Humidity 100    
Minimum Humidity 43    
Precipitation  
Precipitation 0.00 in - - ()
Sea Level Pressure  
Sea Level Pressure 29.95 in    
Wind  
Wind Speed 1 mph (South)    
Max Wind Speed 10 mph    
Max Gust Speed 16 mph    
Visibility 4 miles    
Events Fog    
Averages and records for this station are not official NWS values.
T = Trace of Precipitation, MM = Missing Value Source: NWS Daily Summary

Daily Weather History Graph

Daily Weather History Graph

Search for Another Location

Airport or City:

Trip Planner

Search our weather history database for the weather conditions in past years. The results will help you decide how hot, cold, wet, or windy it might be!

Date:

Astronomy

Oct. 11, 2011 Rise Set
Actual Time 7:27 AM CDT 6:53 PM CDT
Civil Twilight 7:01 AM CDT 7:19 PM CDT
Nautical Twilight 6:31 AM CDT 7:49 PM CDT
Astronomical Twilight 6:01 AM CDT 8:19 PM CDT
Moon 6:27 PM CDT (10/11) 7:05 AM CDT (10/11)
Length of Visible Light 12h 17m
Length of Day
11h 25m
Full, 100% of the Moon is Illuminated
Oct 11
Full
Oct 11
Full
Oct 19
Last Quarter
Oct 26
New
Nov 2
First Quarter

Hourly Weather History & Observations

Time (CDT) Temp. Dew Point Humidity Pressure Visibility Wind Dir Wind Speed Gust Speed Precip Events Conditions
12:05 AM 51.8 °F 51.8 °F 100% 30.00 in 1.5 mi Calm Calm - N/A   Partly Cloudy
12:08 AM 51.8 °F 51.8 °F 100% 30.00 in 0.8 mi Calm Calm - N/A   Mist
12:18 AM 51.8 °F 50.0 °F 94% 30.00 in 1.5 mi Calm Calm - N/A   Partly Cloudy
12:25 AM 50.0 °F 50.0 °F 100% 30.00 in 0.8 mi Calm Calm - N/A   Mist
12:27 AM 51.8 °F 50.0 °F 94% 30.00 in 0.5 mi Calm Calm - N/A Fog Fog
12:39 AM 51.8 °F 50.0 °F 94% 30.00 in 1.0 mi Calm Calm - N/A   Clear
12:42 AM 51.8 °F 50.0 °F 94% 30.00 in 4.0 mi Calm Calm - N/A   Clear
12:53 AM 50.0 °F 50.0 °F 100% 29.98 in 6.0 mi Calm Calm - N/A   Clear
12:59 AM 50.0 °F 50.0 °F 100% 29.99 in 1.8 mi Calm Calm - N/A   Clear
1:07 AM 50.0 °F 50.0 °F 100% 29.99 in 0.8 mi Calm Calm - N/A   Mist
1:16 AM 50.0 °F 50.0 °F 100% 29.99 in 1.2 mi Calm Calm - N/A   Partly Cloudy
1:21 AM 48.2 °F 48.2 °F 100% 29.99 in 3.0 mi Calm Calm - N/A   Clear
1:38 AM 50.0 °F 48.2 °F 94% 29.99 in 2.0 mi Calm Calm - N/A   Clear
1:51 AM 48.2 °F 48.2 °F 100% 29.99 in 1.0 mi Calm Calm - N/A   Clear
1:53 AM 48.9 °F 48.9 °F 100% 29.97 in 1.0 mi Calm Calm - N/A   Clear
2:18 AM 48.2 °F 48.2 °F 100% 29.98 in 1.8 mi Calm Calm - N/A   Clear
2:24 AM 48.2 °F 48.2 °F 100% 29.98 in 2.0 mi Calm Calm - N/A   Partly Cloudy
2:27 AM 48.2 °F 48.2 °F 100% 29.98 in 1.0 mi Calm Calm - N/A   Mist
2:34 AM 48.2 °F 48.2 °F 100% 29.98 in 0.5 mi Calm Calm - N/A Fog Fog
2:38 AM 48.2 °F 48.2 °F 100% 29.98 in 1.0 mi Calm Calm - N/A   Mist
2:51 AM 48.2 °F 48.2 °F 100% 29.98 in 0.5 mi Calm Calm - N/A Fog Fog
2:53 AM 48.0 °F 48.0 °F 100% 29.96 in 0.5 mi Calm Calm - N/A Fog Fog
3:13 AM 46.4 °F 46.4 °F 100% 29.97 in 1.0 mi Calm Calm - N/A   Mist
3:19 AM 46.4 °F 46.4 °F 100% 29.97 in 0.5 mi Calm Calm - N/A Fog Fog
3:26 AM 48.2 °F 48.2 °F 100% 29.97 in 1.0 mi Calm Calm - N/A   Mist
3:32 AM 46.4 °F 46.4 °F 100% 29.97 in 0.5 mi Calm Calm - N/A Fog Fog
3:43 AM 46.4 °F 46.4 °F 100% 29.97 in 1.0 mi Calm Calm - N/A   Overcast
3:53 AM 48.0 °F 46.9 °F 96% 29.95 in 2.0 mi Calm Calm - N/A   Overcast
3:58 AM 46.4 °F 46.4 °F 100% 29.97 in 0.8 mi Calm Calm - N/A   Overcast
4:15 AM 48.2 °F 48.2 °F 100% 29.97 in 0.5 mi Calm Calm - N/A Fog Fog
4:40 AM 46.4 °F 46.4 °F 100% 29.97 in 1.0 mi Calm Calm - N/A   Mist
4:43 AM 46.4 °F 46.4 °F 100% 29.97 in 0.5 mi Calm Calm - N/A Fog Fog
6:29 AM 48.2 °F 48.2 °F 100% 29.98 in 1.0 mi Calm Calm - N/A   Overcast
6:40 AM 48.2 °F 48.2 °F 100% 29.98 in 2.0 mi Calm Calm - N/A   Overcast
6:50 AM 48.2 °F 48.2 °F 100% 29.98 in 0.2 mi Calm Calm - N/A Fog Fog
6:51 AM 48.9 °F 48.9 °F 100% 29.96 in 0.2 mi Calm Calm - N/A Fog Fog
7:53 AM 50.0 °F 50.0 °F 100% 29.96 in 0.2 mi Calm Calm - N/A Fog Fog
8:11 AM 51.8 °F 51.8 °F 100% 29.97 in 0.5 mi Calm Calm - N/A Fog Fog
8:29 AM 51.8 °F 51.8 °F 100% 29.98 in 0.2 mi Calm Calm - N/A Fog Fog
9:13 AM 55.4 °F 55.4 °F 100% 29.98 in 0.8 mi Calm Calm - N/A   Mostly Cloudy
9:18 AM 55.4 °F 55.4 °F 100% 29.98 in 2.0 mi Calm Calm - N/A   Mostly Cloudy
9:21 AM 57.2 °F 57.2 °F 100% 29.98 in 3.0 mi Calm Calm - N/A   Overcast
9:41 AM 59.0 °F 57.2 °F 94% 29.97 in 7.0 mi Calm Calm - N/A   Scattered Clouds
9:53 AM 61.0 °F 59.0 °F 93% 29.96 in 8.0 mi Calm Calm - N/A   Clear
10:53 AM 69.1 °F 61.0 °F 75% 29.95 in 10.0 mi East 3.5 mph - N/A   Clear
11:53 AM 73.0 °F 61.0 °F 66% 29.92 in 10.0 mi SSE 6.9 mph 16.1 mph N/A   Mostly Cloudy
12:53 PM 77.0 °F 59.0 °F 54% 29.90 in 10.0 mi South 9.2 mph - N/A   Scattered Clouds
1:53 PM 78.1 °F 55.9 °F 46% 29.86 in 10.0 mi South 10.4 mph - N/A   Clear
3:53 PM 79.0 °F 55.0 °F 44% 29.81 in 10.0 mi Variable 4.6 mph - N/A   Clear
4:53 PM 78.1 °F 54.0 °F 43% 29.80 in 10.0 mi SSW 9.2 mph - N/A   Clear
5:53 PM 75.9 °F 55.9 °F 50% 29.79 in 10.0 mi South 6.9 mph - N/A   Clear
6:53 PM 71.1 °F 57.9 °F 63% 29.80 in 10.0 mi SSW 3.5 mph - N/A   Clear
7:53 PM 64.9 °F 57.0 °F 75% 29.81 in 10.0 mi Calm Calm - N/A   Clear
8:53 PM 60.1 °F 57.0 °F 90% 29.81 in 10.0 mi Calm Calm - N/A   Scattered Clouds
9:53 PM 59.0 °F 57.0 °F 93% 29.80 in 10.0 mi Calm Calm - N/A   Scattered Clouds
10:53 PM 57.0 °F 55.9 °F 96% 29.80 in 10.0 mi Calm Calm - N/A   Clear
11:53 PM 55.9 °F 55.9 °F 100% 29.81 in 10.0 mi Calm Calm - N/A   Clear